RZO120 LPPD-LPPT

Flight info

Callsign RZO120
Flight time N/A
Altitude 27000
Route BEKUN DCT LENSI/M071F350 T25 GUNTI/N0408F370 DCT LAZET
Aircraft A20N/M-SDE2E3FGHIRWXY/LB1

Departure

Time 2026-05-01 09:14
Airport João Paulo II Airport (LPPD)

Arrival

Time N/A
Airport Lisbon Humberto Delgado Airport (LPPT)
Time Latitude Longitude Altitude Speed Heading
2026-05-01 08:53 37.74894 -25.71169 272 ft 0 kts 22°
2026-05-01 09:06 37.74882 -25.71175 272 ft 3 kts 25°
2026-05-01 09:07 37.74862 -25.71189 274 ft 3 kts 36°
2026-05-01 09:07 37.74845 -25.71209 272 ft 3 kts 62°
2026-05-01 09:07 37.74841 -25.71231 272 ft 2 kts 111°
2026-05-01 09:07 37.74841 -25.71233 272 ft 0 kts 112°
2026-05-01 09:09 37.74841 -25.71232 272 ft 1 kts 112°
2026-05-01 09:10 37.74808 -25.71132 272 ft 25 kts 114°
2026-05-01 09:10 37.74762 -25.71025 272 ft 15 kts 156°
2026-05-01 09:10 37.74662 -25.71024 275 ft 15 kts 178°
2026-05-01 09:10 37.74558 -25.70896 270 ft 25 kts 106°
2026-05-01 09:11 37.74489 -25.70679 265 ft 32 kts 113°
2026-05-01 09:11 37.74376 -25.70333 252 ft 47 kts 111°
2026-05-01 09:11 37.74261 -25.69958 239 ft 46 kts 111°
2026-05-01 09:11 37.74139 -25.69574 224 ft 49 kts 111°
2026-05-01 09:12 37.74016 -25.69174 210 ft 50 kts 111°
2026-05-01 09:12 37.73898 -25.68800 194 ft 34 kts 113°
2026-05-01 09:12 37.73808 -25.68577 189 ft 21 kts 141°
2026-05-01 09:12 37.73745 -25.68487 184 ft 12 kts 69°
2026-05-01 09:13 37.73796 -25.68491 198 ft 7 kts 311°
2026-05-01 09:13 37.73806 -25.68521 193 ft 0 kts 292°
2026-05-01 09:13 37.73856 -25.68677 190 ft 61 kts 291°
2026-05-01 09:14 37.74125 -25.69536 222 ft 144 kts 292°
2026-05-01 09:14 37.74556 -25.70875 746 ft 172 kts 290°
2026-05-01 09:14 37.74793 -25.72334 1875 ft 169 kts 278°
2026-05-01 09:14 37.74924 -25.73862 2774 ft 185 kts 279°
2026-05-01 09:15 37.75417 -25.75466 3509 ft 211 kts 303°
2026-05-01 09:15 37.76346 -25.77047 4469 ft 237 kts 311°
2026-05-01 09:15 37.77735 -25.78307 5597 ft 255 kts 336°
2026-05-01 09:15 37.79479 -25.78830 7001 ft 263 kts 355°
2026-05-01 09:16 37.81321 -25.78600 8217 ft 272 kts 15°
2026-05-01 09:16 37.82986 -25.77415 9130 ft 282 kts 41°
2026-05-01 09:16 37.84118 -25.75360 10029 ft 291 kts 64°
2026-05-01 09:17 37.84941 -25.69946 10804 ft 342 kts 85°
2026-05-01 09:17 37.85068 -25.66866 11286 ft 357 kts 85°
2026-05-01 09:17 37.85368 -25.60498 12816 ft 368 kts 84°
2026-05-01 09:18 37.85533 -25.57250 13608 ft 372 kts 84°
2026-05-01 09:18 37.85867 -25.50671 14996 ft 382 kts 83°
2026-05-01 09:19 37.86204 -25.43887 16327 ft 391 kts 83°
2026-05-01 09:19 37.86373 -25.40428 16975 ft 396 kts 83°
2026-05-01 09:19 37.86543 -25.36928 17622 ft 401 kts 82°
2026-05-01 09:20 37.86884 -25.29803 18807 ft 410 kts 82°
2026-05-01 09:20 37.87225 -25.22527 19879 ft 418 kts 83°
2026-05-01 09:21 37.87565 -25.15102 20933 ft 427 kts 83°
2026-05-01 09:21 37.87734 -25.11334 21442 ft 431 kts 83°
2026-05-01 09:21 37.88080 -25.03693 22455 ft 439 kts 83°
2026-05-01 09:22 37.88435 -24.95914 23459 ft 447 kts 83°
2026-05-01 09:22 37.88784 -24.87997 24265 ft 454 kts 83°
2026-05-01 09:23 37.88956 -24.83984 24647 ft 458 kts 83°
2026-05-01 09:23 37.89306 -24.75872 25379 ft 465 kts 83°
2026-05-01 09:24 37.89659 -24.67628 26126 ft 473 kts 83°
2026-05-01 09:24 37.89836 -24.63451 26464 ft 477 kts 83°
2026-05-01 09:24 37.90186 -24.55007 27014 ft 483 kts 84°
2026-05-01 09:25 37.90530 -24.46507 27041 ft 483 kts 84°
2026-05-01 09:25 37.90868 -24.38002 27075 ft 483 kts 83°
2026-05-01 09:26 37.91036 -24.33752 27035 ft 483 kts 83°
2026-05-01 09:26 37.91364 -24.25246 27041 ft 484 kts 83°
2026-05-01 09:26 37.91524 -24.20988 27127 ft 484 kts 83°
2026-05-01 09:27 37.91840 -24.12457 27276 ft 486 kts 83°
2026-05-01 09:27 37.91998 -24.08184 27333 ft 486 kts 84°
2026-05-01 09:27 37.92155 -24.03887 27443 ft 491 kts 84°
2026-05-01 09:28 37.92313 -23.99556 27515 ft 493 kts 84°
2026-05-01 09:28 37.92472 -23.95213 27593 ft 495 kts 84°
2026-05-01 09:28 37.92630 -23.90854 27671 ft 496 kts 84°
2026-05-01 09:28 37.92784 -23.86491 27750 ft 496 kts 84°
2026-05-01 09:29 37.93093 -23.77741 27906 ft 498 kts 84°
2026-05-01 09:29 37.93244 -23.73353 28024 ft 499 kts 84°
2026-05-01 09:30 37.93535 -23.64561 28179 ft 501 kts 84°
2026-05-01 09:30 37.93963 -23.51310 28420 ft 503 kts 84°
2026-05-01 09:31 37.94258 -23.42444 28622 ft 505 kts 84°
2026-05-01 09:31 37.94549 -23.33534 28786 ft 508 kts 84°
2026-05-01 09:32 37.94686 -23.29058 28868 ft 509 kts 84°
2026-05-01 09:32 37.95910 -23.20366 29025 ft 496 kts 62°
2026-05-01 09:32 37.97270 -23.16353 29111 ft 496 kts 60°
2026-05-01 09:33 38.00028 -23.08319 29338 ft 498 kts 60°
2026-05-01 09:33 38.02799 -23.00230 29508 ft 501 kts 60°
2026-05-01 09:34 38.04184 -22.96167 29586 ft 502 kts 60°
2026-05-01 09:34 38.08343 -22.83917 29834 ft 505 kts 60°
2026-05-01 09:35 38.12533 -22.71573 30134 ft 511 kts 60°
2026-05-01 09:36 38.15334 -22.63262 30267 ft 512 kts 60°
2026-05-01 09:36 38.18123 -22.54945 30413 ft 512 kts 61°
2026-05-01 09:37 38.20911 -22.46621 30552 ft 511 kts 61°
2026-05-01 09:37 38.23691 -22.38303 30744 ft 511 kts 61°
2026-05-01 09:37 38.25078 -22.34146 30814 ft 510 kts 61°
2026-05-01 09:38 38.27853 -22.25840 30962 ft 510 kts 61°
2026-05-01 09:38 38.29237 -22.21688 31037 ft 509 kts 62°
2026-05-01 09:39 38.33377 -22.09157 31283 ft 509 kts 62°
2026-05-01 09:39 38.36090 -22.00919 31427 ft 501 kts 62°
2026-05-01 09:40 38.40147 -21.88599 31647 ft 500 kts 62°
2026-05-01 09:41 38.42825 -21.80419 31838 ft 500 kts 63°
2026-05-01 09:41 38.45490 -21.72252 31994 ft 498 kts 63°
2026-05-01 09:41 38.46818 -21.68171 32064 ft 498 kts 63°
2026-05-01 09:42 38.49472 -21.60016 32217 ft 497 kts 63°
2026-05-01 09:42 38.52142 -21.51807 32372 ft 497 kts 63°
2026-05-01 09:43 38.54782 -21.43636 32542 ft 499 kts 64°
2026-05-01 09:43 38.57432 -21.35423 32694 ft 500 kts 65°
2026-05-01 09:44 38.60073 -21.27197 32845 ft 500 kts 65°
2026-05-01 09:44 38.61392 -21.23082 32922 ft 500 kts 65°
2026-05-01 09:45 38.63606 -21.16194 33053 ft 500 kts 65°
2026-05-01 09:45 38.66246 -21.07956 33230 ft 502 kts 66°
2026-05-01 09:45 38.67561 -21.03813 33307 ft 502 kts 66°
2026-05-01 09:46 38.70204 -20.95471 33462 ft 502 kts 66°
2026-05-01 09:46 38.72832 -20.87176 33617 ft 502 kts 66°
2026-05-01 09:47 38.75460 -20.78885 33798 ft 503 kts 66°
2026-05-01 09:47 38.78087 -20.70563 33950 ft 504 kts 66°
2026-05-01 09:48 38.80720 -20.62172 34095 ft 504 kts 66°
2026-05-01 09:48 38.83328 -20.53819 34228 ft 504 kts 66°
2026-05-01 09:49 38.85955 -20.45412 34376 ft 504 kts 67°
2026-05-01 09:49 38.88564 -20.37062 34513 ft 504 kts 67°
2026-05-01 09:50 38.91180 -20.28651 34647 ft 504 kts 67°
2026-05-01 09:50 38.93761 -20.20290 34791 ft 503 kts 67°
2026-05-01 09:51 38.95046 -20.16114 34925 ft 503 kts 67°
2026-05-01 09:51 38.96332 -20.11934 34983 ft 502 kts 68°
2026-05-01 09:51 38.98884 -20.03495 34998 ft 503 kts 72°
2026-05-01 09:52 39.00107 -19.94668 35002 ft 502 kts 89°
2026-05-01 09:52 39.00292 -19.85624 35005 ft 503 kts 89°
2026-05-01 09:53 39.00477 -19.76636 35003 ft 503 kts 90°
2026-05-01 09:53 39.00649 -19.67638 34995 ft 504 kts 90°
2026-05-01 09:54 39.00816 -19.58632 34993 ft 504 kts 90°
2026-05-01 09:54 39.00975 -19.49563 34993 ft 504 kts 90°
2026-05-01 09:55 39.01118 -19.40552 35005 ft 504 kts 91°
2026-05-01 09:55 39.01259 -19.31538 35004 ft 505 kts 91°
2026-05-01 09:56 39.01398 -19.22512 35005 ft 505 kts 91°
2026-05-01 09:56 39.01527 -19.13486 35003 ft 505 kts 91°
2026-05-01 09:57 39.01652 -19.04397 35005 ft 505 kts 91°
2026-05-01 09:57 39.01772 -18.95361 35012 ft 505 kts 91°
2026-05-01 09:58 39.01890 -18.86323 35015 ft 506 kts 91°
2026-05-01 09:58 39.01991 -18.77283 35018 ft 506 kts 91°
2026-05-01 09:59 39.02074 -18.68246 35017 ft 506 kts 91°
2026-05-01 09:59 39.02156 -18.59205 35019 ft 506 kts 91°
2026-05-01 10:00 39.02241 -18.50166 35022 ft 506 kts 91°
2026-05-01 10:00 39.02313 -18.41065 35015 ft 506 kts 92°
2026-05-01 10:01 39.02375 -18.32010 35012 ft 507 kts 92°
2026-05-01 10:01 39.02441 -18.22939 34994 ft 508 kts 92°
2026-05-01 10:02 39.02499 -18.13851 35000 ft 510 kts 92°
2026-05-01 10:02 39.02546 -18.04717 34996 ft 512 kts 92°
2026-05-01 10:03 39.02582 -17.95483 35005 ft 514 kts 92°
2026-05-01 10:03 39.02610 -17.86282 35012 ft 515 kts 92°
2026-05-01 10:04 39.02643 -17.77059 35015 ft 516 kts 92°
2026-05-01 10:04 39.02659 -17.67831 35019 ft 516 kts 93°
2026-05-01 10:05 39.02666 -17.58606 35026 ft 516 kts 93°
2026-05-01 10:05 39.02671 -17.49324 35030 ft 516 kts 93°
2026-05-01 10:06 39.02666 -17.40104 35038 ft 515 kts 93°
2026-05-01 10:06 39.02654 -17.32382 35026 ft 516 kts 94°
2026-05-01 10:07 39.02635 -17.23155 35030 ft 516 kts 94°
2026-05-01 10:07 39.02614 -17.13924 35031 ft 516 kts 94°
2026-05-01 10:08 39.02567 -17.00000 35036 ft 517 kts 94°
2026-05-01 10:09 39.02523 -16.90767 35039 ft 516 kts 94°
2026-05-01 10:09 39.02471 -16.81532 35041 ft 516 kts 94°
2026-05-01 10:10 39.02407 -16.72284 35021 ft 518 kts 94°
2026-05-01 10:10 39.02313 -16.58341 35048 ft 521 kts 95°
2026-05-01 10:11 39.02236 -16.48959 35039 ft 521 kts 95°
2026-05-01 10:11 39.02152 -16.39640 35043 ft 521 kts 95°
2026-05-01 10:12 39.02058 -16.30325 35034 ft 521 kts 95°
2026-05-01 10:13 39.01908 -16.16275 35045 ft 522 kts 95°
2026-05-01 10:13 39.01795 -16.06947 35048 ft 522 kts 95°
2026-05-01 10:14 39.01618 -15.92951 35040 ft 522 kts 95°
2026-05-01 10:14 39.01491 -15.83605 35051 ft 523 kts 96°
2026-05-01 10:15 39.01347 -15.74186 35056 ft 524 kts 96°
2026-05-01 10:15 39.01202 -15.64818 35058 ft 524 kts 96°
2026-05-01 10:16 39.01058 -15.55451 35052 ft 524 kts 96°
2026-05-01 10:17 39.00816 -15.41330 35064 ft 524 kts 96°
2026-05-01 10:17 39.00552 -15.27225 35073 ft 529 kts 96°
2026-05-01 10:18 39.00277 -15.13039 35074 ft 529 kts 96°
2026-05-01 10:19 39.00080 -15.03584 35072 ft 529 kts 96°
2026-05-01 10:19 38.99923 -14.94117 35072 ft 530 kts 95°
2026-05-01 10:20 38.99983 -14.79853 35102 ft 528 kts 94°
2026-05-01 10:20 39.00018 -14.70422 35106 ft 527 kts 94°
2026-05-01 10:21 38.99966 -14.56315 35065 ft 526 kts 95°
2026-05-01 10:22 38.99908 -14.42165 35088 ft 525 kts 95°
2026-05-01 10:23 38.99847 -14.28099 35094 ft 524 kts 95°
2026-05-01 10:23 38.99757 -14.14038 35091 ft 524 kts 95°
2026-05-01 10:24 38.99635 -13.95278 35107 ft 522 kts 95°
2026-05-01 10:25 38.99474 -13.76620 35111 ft 522 kts 95°
2026-05-01 10:26 38.99375 -13.67287 35095 ft 523 kts 95°
2026-05-01 10:27 38.99159 -13.48441 35033 ft 522 kts 95°
2026-05-01 10:27 38.99053 -13.39334 34744 ft 501 kts 96°
2026-05-01 10:28 38.98997 -13.34813 34609 ft 498 kts 96°
2026-05-01 10:28 38.98878 -13.25916 34322 ft 498 kts 96°
2026-05-01 10:28 38.98815 -13.21472 34183 ft 498 kts 96°
2026-05-01 10:29 38.98679 -13.12575 33795 ft 498 kts 96°
2026-05-01 10:29 38.98632 -13.09629 33670 ft 498 kts 96°
2026-05-01 10:30 38.98482 -13.00667 33298 ft 498 kts 96°
2026-05-01 10:30 38.98342 -12.91759 32929 ft 499 kts 96°
2026-05-01 10:31 38.98193 -12.82783 32563 ft 499 kts 96°
2026-05-01 10:31 38.98029 -12.73865 32188 ft 499 kts 96°
2026-05-01 10:32 38.97856 -12.64964 31841 ft 498 kts 96°
2026-05-01 10:32 38.97768 -12.60515 31665 ft 498 kts 96°
2026-05-01 10:32 38.97595 -12.51549 31322 ft 499 kts 96°
2026-05-01 10:33 38.97415 -12.42632 30974 ft 499 kts 96°
2026-05-01 10:33 38.97223 -12.33722 30618 ft 499 kts 95°
2026-05-01 10:34 38.97122 -12.29266 30453 ft 499 kts 95°
2026-05-01 10:34 38.97018 -12.24750 30289 ft 499 kts 95°
2026-05-01 10:34 38.96915 -12.20294 30094 ft 499 kts 95°
2026-05-01 10:35 38.96710 -12.11388 29708 ft 498 kts 95°
2026-05-01 10:35 38.96604 -12.06940 29514 ft 498 kts 95°
2026-05-01 10:35 38.96495 -12.02497 29298 ft 497 kts 95°
2026-05-01 10:35 38.96386 -11.98062 29107 ft 496 kts 95°
2026-05-01 10:36 38.96162 -11.89192 28710 ft 497 kts 95°
2026-05-01 10:36 38.96045 -11.84750 28523 ft 497 kts 95°
2026-05-01 10:36 38.95925 -11.80317 28337 ft 497 kts 95°
2026-05-01 10:37 38.95806 -11.75879 28152 ft 496 kts 95°
2026-05-01 10:37 38.95573 -11.67030 27815 ft 495 kts 95°
2026-05-01 10:37 38.95451 -11.62552 27657 ft 495 kts 95°
2026-05-01 10:38 38.95328 -11.58137 27502 ft 494 kts 95°
2026-05-01 10:38 38.95203 -11.53726 27351 ft 494 kts 95°
2026-05-01 10:38 38.95079 -11.49372 27196 ft 487 kts 95°
2026-05-01 10:38 38.94948 -11.44943 27044 ft 505 kts 95°
2026-05-01 10:39 38.94805 -11.40373 26895 ft 520 kts 95°
2026-05-01 10:39 38.94656 -11.35678 26744 ft 533 kts 95°
2026-05-01 10:39 38.94506 -11.30865 26578 ft 545 kts 95°
2026-05-01 10:39 38.94358 -11.26004 26963 ft 544 kts 95°
2026-05-01 10:40 38.94211 -11.21142 27264 ft 546 kts 95°
2026-05-01 10:40 38.94059 -11.16184 27519 ft 549 kts 95°
2026-05-01 10:40 38.93904 -11.11270 27778 ft 552 kts 95°
2026-05-01 10:40 38.93746 -11.06331 28102 ft 553 kts 95°
2026-05-01 10:41 38.93589 -11.01410 28638 ft 550 kts 95°
2026-05-01 10:41 38.93434 -10.96515 29183 ft 547 kts 95°
2026-05-01 10:41 38.93129 -10.86805 30283 ft 541 kts 95°
2026-05-01 10:42 38.92979 -10.81997 30783 ft 537 kts 95°
2026-05-01 10:42 38.92832 -10.77220 31296 ft 534 kts 95°
2026-05-01 10:42 38.92687 -10.72473 31828 ft 530 kts 95°
2026-05-01 10:42 38.92544 -10.67759 32381 ft 526 kts 95°
2026-05-01 10:43 38.92404 -10.63084 32950 ft 522 kts 95°
2026-05-01 10:43 38.92266 -10.58388 33554 ft 517 kts 96°
2026-05-01 10:43 38.92132 -10.53791 34161 ft 512 kts 95°
2026-05-01 10:43 38.92001 -10.49242 34716 ft 507 kts 96°
2026-05-01 10:44 38.91875 -10.44741 35276 ft 502 kts 96°
2026-05-01 10:44 38.91752 -10.40297 35871 ft 495 kts 96°
2026-05-01 10:44 38.91634 -10.35904 36477 ft 489 kts 96°
2026-05-01 10:44 38.91521 -10.31576 37101 ft 482 kts 96°
2026-05-01 10:45 38.91414 -10.27313 37749 ft 474 kts 96°
2026-05-01 10:45 38.91313 -10.23123 38406 ft 465 kts 96°
2026-05-01 10:45 38.91218 -10.19013 39020 ft 456 kts 96°
2026-05-01 10:45 38.91127 -10.14985 39488 ft 450 kts 97°
2026-05-01 10:46 38.90893 -10.10879 39275 ft 461 kts 101°
2026-05-01 10:46 38.90530 -10.06654 38173 ft 495 kts 101°